Location: Powder Track
(41.8531°N, 72.3584°W)
Time: 08:54:28
(UTC+00:00)

Altair - Pass Details

Date: 02 August 2021
Orbit: 1501 x 1682 km, 47.2° (Epoch: 19 September)

Event Time Altitude Azimuth Distance (km) Brightness Sun altitude
Exits shadow 07:30:06 19° 259° (W) 3,045 8.6 -20.6°
Maximum altitude 07:37:19 75° 342° (NNW) 1,569 7.5 -19.8°
Drops below altitude 10° 07:46:31 10° 68° (ENE) 3,656 10.5 -18.6°
Sets 07:49:33 0° 70° (ENE) 4,637 11.2 -18.2°
